Location: Litvinovka
(48.6667°N, 34.3500°E)
Time: 11:29:54
(UTC+00:00)

Meteor 1-15 Rocket - Pass Details

Date: 18 September 2020
Orbit: 840 x 907 km, 81.2° (Epoch: 30 October)

Event Time Altitude Azimuth Distance (km) Brightness Sun altitude
Rises 18:08:33 0° 194° (SSW) 3,394 7.2 -22.8°
Reaches altitude 10° 18:10:57 10° 196° (SSW) 2,469 6.5 -23.1°
Maximum altitude 18:16:33 76° 283° (WNW) 888 4.3 -23.9°
Drops below altitude 10° 18:22:18 10° 9° (N) 2,528 7.0 -24.7°
Sets 18:24:46 0° 11° (NNE) 3,480 7.7 -25.0°
